Location: Broletto
(44.6000°N, 10.5833°E)
Time: 07:52:35
(UTC+00:00)

Cosmos 1269 Rocket - Pass Details

Date: 18 April 2021
Orbit: 772 x 779 km, 74.1° (Epoch: 06 May)

Event Time Altitude Azimuth Distance (km) Brightness Sun altitude
Rises 18:26:57 0° 194° (SSW) 3,245 7.2 -4.3°
Reaches altitude 10° 18:29:19 10° 193° (SSW) 2,323 6.4 -4.7°
Maximum altitude 18:34:35 77° 109° (ESE) 804 4.0 -5.6°
Drops below altitude 10° 18:39:54 10° 24° (NNE) 2,341 6.5 -6.4°
Sets 18:42:18 0° 23° (NNE) 3,273 7.3 -6.8°
